Location: Eschertshofen
(49.3064°N, 11.5756°E)
Time: 02:20:55
(UTC+00:00)

OBJECT-B - Pass Details

Date: 18 September 2020
Orbit: 421 x 433 km, 97.0° (Epoch: 09 October)

Event Time Altitude Azimuth Distance (km) Brightness Sun altitude
Exits shadow 19:01:25 48° 110° (ESE) 564 0.9 -16.9°
Maximum altitude 19:01:54 54° 74° (ENE) 522 0.9 -17.0°
Drops below altitude 10° 19:05:05 10° 356° (N) 1,524 3.9 -17.5°
Sets 19:07:08 0° 352° (N) 2,397 5.1 -17.8°
